Weather History for Plattsmouth, NE

Change the Weather History Date:

Wednesday, February 13, 2013

  Actual Average (KOFF) Record (KOFF)
Temperature  
Mean Temperature 40 °F -  
Max Temperature 53 °F 37 °F 59 °F (2011)
Min Temperature 26 °F 20 °F 0 °F (2004)
Degree Days  
Heating Degree Days 26    
Moisture  
Dew Point 26 °F    
Average Humidity 62    
Maximum Humidity 86    
Minimum Humidity 33    
Precipitation  
Precipitation 0.00 in - - ()
Sea Level Pressure  
Sea Level Pressure 29.81 in    
Wind  
Wind Speed 7 mph (WSW)    
Max Wind Speed 14 mph    
Max Gust Speed 23 mph    
Visibility 10 miles    
Events      
Averages and records for this station are not official NWS values.
T = Trace of Precipitation, MM = Missing Value Source: NWS Daily Summary

Daily Weather History Graph

Daily Weather History Graph

Search for Another Location

Airport:

Trip Planner

Search our weather history database for the weather conditions in past years. The results will help you decide how hot, cold, wet, or windy it might be!

Date:

Astronomy

Feb. 13, 2013 Rise Set
Actual Time 7:20 AM CST 5:56 PM CST
Civil Twilight 6:51 AM CST 6:24 PM CST
Nautical Twilight 6:19 AM CST 6:56 PM CST
Astronomical Twilight 5:47 AM CST 7:28 PM CST
Moon 8:48 AM CST (2/13) 10:02 PM CST (2/13)
Length of Visible Light 11h 32m
Length of Day
10h 35m
Waxing Crescent, 14% of the Moon is Illuminated
Feb 13
Waxing Crescent
Feb 17
First Quarter
Feb 25
Full
Mar 4
Last Quarter
Mar 11
New

Hourly Weather History & Observations

Time (CST) Temp. Windchill Dew Point Humidity Pressure Visibility Wind Dir Wind Speed Gust Speed Precip Events Conditions
12:15 AM 31.1 °F 25.4 °F 21.2 °F 67% 29.91 in 10.0 mi West 5.8 mph - N/A   Clear
12:35 AM 30.9 °F 25.2 °F 21.7 °F 69% 29.91 in 10.0 mi West 5.8 mph - N/A   Clear
12:55 AM 30.0 °F 23.2 °F 21.4 °F 70% 29.90 in 10.0 mi WSW 6.9 mph - N/A   Clear
1:15 AM 29.3 °F 23.2 °F 21.7 °F 73% 29.90 in 10.0 mi West 5.8 mph - N/A   Clear
1:35 AM 30.7 °F 24.9 °F 22.1 °F 70% 29.90 in 10.0 mi West 5.8 mph - N/A   Clear
1:55 AM 29.8 °F 23.9 °F 22.1 °F 73% 29.89 in 10.0 mi West 5.8 mph - N/A   Clear
2:15 AM 30.0 °F 24.1 °F 22.1 °F 72% 29.89 in 10.0 mi WSW 5.8 mph - N/A   Clear
2:35 AM 30.2 °F 24.3 °F 22.1 °F 72% 29.89 in 10.0 mi West 5.8 mph - N/A   Clear
2:55 AM 29.7 °F 23.7 °F 21.7 °F 72% 29.89 in 10.0 mi WSW 5.8 mph - N/A   Clear
3:15 AM 28.9 °F 21.9 °F 21.9 °F 75% 29.88 in 10.0 mi WSW 6.9 mph - N/A   Clear
3:35 AM 28.6 °F 22.4 °F 21.9 °F 76% 29.88 in 10.0 mi West 5.8 mph - N/A   Clear
3:55 AM 28.4 °F 21.2 °F 22.5 °F 78% 29.87 in 10.0 mi West 6.9 mph - N/A   Clear
4:15 AM 28.4 °F 21.2 °F 22.8 °F 80% 29.87 in 10.0 mi West 6.9 mph - N/A   Clear
4:35 AM 28.4 °F 20.4 °F 22.5 °F 78% 29.86 in 10.0 mi West 8.1 mph - N/A   Clear
4:55 AM 28.2 °F 22.0 °F 22.5 °F 79% 29.86 in 10.0 mi West 5.8 mph - N/A   Clear
5:15 AM 27.5 °F 20.2 °F 22.6 °F 82% 29.85 in 10.0 mi WSW 6.9 mph - N/A   Clear
5:35 AM 28.2 °F 21.0 °F 23.0 °F 81% 29.85 in 10.0 mi WSW 6.9 mph - N/A   Clear
5:55 AM 27.5 °F 20.2 °F 22.8 °F 83% 29.86 in 10.0 mi West 6.9 mph - N/A   Clear
6:15 AM 27.0 °F 20.5 °F 22.6 °F 84% 29.85 in 10.0 mi West 5.8 mph - N/A   Clear
6:35 AM 27.0 °F 21.6 °F 22.5 °F 83% 29.85 in 10.0 mi West 4.6 mph - N/A   Clear
6:55 AM 26.6 °F 19.1 °F 22.3 °F 84% 29.85 in 10.0 mi West 6.9 mph - N/A   Clear
7:15 AM 26.4 °F 19.8 °F 22.1 °F 84% 29.85 in 10.0 mi West 5.8 mph - N/A   Clear
7:35 AM 26.2 °F 22.1 °F 22.5 °F 86% 29.86 in 10.0 mi West 3.5 mph - N/A   Clear
7:55 AM 28.2 °F 22.0 °F 24.1 °F 84% 29.86 in 10.0 mi West 5.8 mph - N/A   Clear
8:15 AM 28.6 °F 22.4 °F 24.4 °F 84% 29.86 in 10.0 mi West 5.8 mph - N/A   Clear
8:35 AM 30.2 °F 25.4 °F 25.9 °F 84% 29.86 in 10.0 mi West 4.6 mph - N/A   Clear
8:55 AM 32.0 °F 27.5 °F 27.0 °F 82% 29.86 in 10.0 mi West 4.6 mph - N/A   Clear
9:15 AM 32.0 °F 27.5 °F 27.3 °F 83% 29.86 in 10.0 mi WSW 4.6 mph - N/A   Clear
9:35 AM 34.9 °F 29.9 °F 28.6 °F 78% 29.86 in 10.0 mi West 5.8 mph - N/A   Clear
9:55 AM 35.6 °F 31.7 °F 28.4 °F 75% 29.86 in 10.0 mi West 4.6 mph - N/A   Clear
10:15 AM 36.5 °F - 29.1 °F 75% 29.86 in 10.0 mi Calm Calm - N/A   Clear
10:35 AM 39.9 °F 35.8 °F 29.8 °F 67% 29.85 in 10.0 mi WSW 5.8 mph - N/A   Clear
10:55 AM 41.4 °F 36.8 °F 29.5 °F 63% 29.85 in 10.0 mi SW 6.9 mph - N/A   Clear
11:15 AM 43.7 °F 39.1 °F 30.2 °F 59% 29.84 in 10.0 mi WSW 8.1 mph - N/A   Clear
11:35 AM 44.6 °F 40.2 °F 29.8 °F 56% 29.84 in 10.0 mi SW 8.1 mph - N/A   Clear
11:55 AM 45.7 °F 41.0 °F 28.9 °F 52% 29.84 in 10.0 mi SW 9.2 mph - N/A   Clear
12:15 PM 47.7 °F - 28.4 °F 47% 29.82 in 10.0 mi SSW 6.9 mph - N/A   Clear
12:35 PM 48.7 °F - 29.1 °F 47% 29.81 in 10.0 mi SW 8.1 mph - N/A   Clear
12:55 PM 50.9 °F - 28.8 °F 43% 29.80 in 10.0 mi SW 9.2 mph - N/A   Clear
1:15 PM 50.9 °F - 29.1 °F 43% 29.79 in 10.0 mi SSW 11.5 mph - N/A   Clear
1:35 PM 51.4 °F - 28.4 °F 41% 29.78 in 10.0 mi WSW 12.7 mph - N/A   Clear
1:55 PM 52.5 °F - 28.6 °F 40% 29.77 in 10.0 mi SW 11.5 mph 17.3 mph N/A   Clear
2:15 PM 52.9 °F - 27.1 °F 37% 29.77 in 10.0 mi WSW 12.7 mph 17.3 mph N/A   Clear
2:35 PM 53.6 °F - 26.4 °F 35% 29.76 in 10.0 mi WSW 13.8 mph 18.4 mph N/A   Clear
2:55 PM 53.8 °F - 26.4 °F 35% 29.76 in 10.0 mi WSW 11.5 mph 23.0 mph N/A   Clear
3:15 PM 53.8 °F - 25.9 °F 34% 29.75 in 10.0 mi WSW 12.7 mph 18.4 mph N/A   Clear
3:35 PM 53.8 °F - 25.3 °F 33% 29.75 in 10.0 mi WSW 13.8 mph 19.6 mph N/A   Clear
3:55 PM 53.6 °F - 25.7 °F 34% 29.74 in 10.0 mi WSW 12.7 mph - N/A   Clear
4:15 PM 52.7 °F - 25.7 °F 35% 29.73 in 10.0 mi SW 13.8 mph - N/A   Clear
4:35 PM 52.2 °F - 26.1 °F 36% 29.74 in 10.0 mi WSW 11.5 mph - N/A   Clear
4:55 PM 51.3 °F - 26.6 °F 38% 29.74 in 10.0 mi WSW 9.2 mph - N/A   Clear
5:15 PM 50.2 °F - 28.0 °F 42% 29.74 in 10.0 mi WSW 8.1 mph - N/A   Clear
5:35 PM 49.5 °F - 27.3 °F 42% 29.74 in 10.0 mi WSW 8.1 mph - N/A   Clear
5:55 PM 46.6 °F - 27.5 °F 47% 29.74 in 10.0 mi WSW 6.9 mph - N/A   Clear
6:15 PM 44.8 °F 41.6 °F 27.7 °F 51% 29.74 in 10.0 mi SW 5.8 mph - N/A   Mostly Cloudy
6:35 PM 44.4 °F 40.5 °F 27.9 °F 52% 29.73 in 10.0 mi SW 6.9 mph - N/A   Mostly Cloudy
6:55 PM 44.2 °F 40.3 °F 27.5 °F 52% 29.73 in 10.0 mi SW 6.9 mph - N/A   Scattered Clouds
7:15 PM 44.1 °F 39.0 °F 27.5 °F 52% 29.74 in 10.0 mi SW 9.2 mph - N/A   Clear
7:35 PM 43.3 °F 39.2 °F 27.5 °F 54% 29.74 in 10.0 mi SW 6.9 mph - N/A   Scattered Clouds
7:55 PM 42.8 °F 38.6 °F 27.1 °F 54% 29.75 in 10.0 mi WSW 6.9 mph - N/A   Scattered Clouds
8:15 PM 42.4 °F 37.5 °F 27.1 °F 55% 29.75 in 10.0 mi WSW 8.1 mph - N/A   Clear
8:35 PM 42.1 °F 36.6 °F 28.2 °F 58% 29.75 in 10.0 mi WSW 9.2 mph - N/A   Mostly Cloudy
8:55 PM 41.9 °F 36.9 °F 28.2 °F 58% 29.74 in 10.0 mi WSW 8.1 mph - N/A   Mostly Cloudy
9:15 PM 41.0 °F 35.8 °F 27.9 °F 60% 29.75 in 10.0 mi WSW 8.1 mph - N/A   Scattered Clouds
9:35 PM 40.1 °F 35.3 °F 28.0 °F 62% 29.75 in 10.0 mi WSW 6.9 mph - N/A   Clear
9:55 PM 39.6 °F 34.7 °F 28.4 °F 64% 29.75 in 10.0 mi WSW 6.9 mph - N/A   Scattered Clouds
10:15 PM 39.2 °F 33.0 °F 28.4 °F 65% 29.76 in 10.0 mi West 9.2 mph - N/A   Scattered Clouds
10:35 PM 40.1 °F 33.6 °F 28.9 °F 64% 29.76 in 10.0 mi West 10.4 mph - N/A   Clear
10:55 PM 40.1 °F 34.1 °F 29.3 °F 65% 29.77 in 10.0 mi West 9.2 mph - N/A   Mostly Cloudy
11:15 PM 40.8 °F 35.6 °F 29.8 °F 65% 29.77 in 10.0 mi West 8.1 mph - N/A   Overcast
11:35 PM 41.4 °F 36.2 °F 30.0 °F 64% 29.77 in 10.0 mi West 8.1 mph - N/A   Overcast
11:55 PM 39.2 °F 33.0 °F 29.3 °F 68% 29.78 in 10.0 mi West 9.2 mph - N/A   Scattered Clouds